星链-1759 (STARLINK-1759 )

导读 | 星芒AI

STARLINK-1759 是 SpaceX Starlink 卫星互联网项目中的第 1759 颗卫星,属于低轨卫星群,旨在为全球用户提供高速互联网服务。该卫星于 2023 年由猎鹰 9 号火箭发射入轨,运行在约 550 公里的高度,具备先进通信技术,支持宽带连接。Starlink 项目致力于改善偏远地区网络覆盖,提升全球互联网接入的公平性与效率。

基本信息
目录编号:
46340
目录名称:
STARLINK-1759
国际标识:
2020-062R
轨道中心:
EARTH
卫星名称:
星链-1759
卫星全名:
星链-1759 (STARLINK-1759 )
卫星状态:
在轨 (已飞行1930 天)
发射日期:
2020-09-03 UTC
国别 :
美国 (US)
星等 :
--
轨道信息
数据来源 国际轨道数据
星历时间: 2025-12-16T08:00:03+0800
8小时前
查看轨道信息
半长轴: 6825.908km
偏心率: 0.0001329
轨道倾角: 53.034°
近地点辐角 71.288°
升交点赤经 11.960°
平近点角 241.014°
近地点: 446.865km
远地点: 448.681km
周期: 93.541分钟
每日圈数: 15.39438
详细信息
固有亮度:
5
最大亮度:
2.5
卫星平台:
Starlink V1.0
覆盖范围:
全球
运营商:
太空探索技术公司
运营商所在国:
美国
制造商(研发单位):
太空探索技术公司
制造商所在国:
美国
使用方式:
暂无
卫星简介
星链(Starlink)计划是由太空探索技术公司(SpaceX)提出的一个巨型低轨卫星互联网星座项目,计划在2019年至2024年间在太空搭建由约1.2万颗卫星组成的“星链”网络,其中1584颗将部署在地球上空550千米处的近地轨道,并从2020年开始工作。该卫星仍在工作。
2D轨道图
3D轨道图
轨道高度分析图
轨道倾角分析图
轨道综合分析图
查看轨道综合分析图